Change the Weather History Date:

Thursday, January 2, 2014

  Actual Average Record
Temperature  
Mean Temperature 0 °F -  
Max Temperature 12 °F 24 °F 30 °F (2015)
Min Temperature -13 °F 13 °F 5 °F (2015)
Degree Days  
Heating Degree Days 65    
Moisture  
Dew Point -5 °F    
Average Humidity 71    
Maximum Humidity 85    
Minimum Humidity 45    
Precipitation  
Precipitation 0.00 in - - ()
Snow  
Snow 0.00 in - - ()
Snow Depth 7.00 in    
Sea Level Pressure  
Sea Level Pressure 30.38 in    
Wind  
Wind Speed 6 mph (NNW)    
Max Wind Speed 14 mph    
Max Gust Speed -    
Visibility 9 miles    
Events Snow    
Averages and records for this station are not official NWS values.
T = Trace of Precipitation, MM = Missing Value Source: NWS Daily Summary

Daily Weather History Graph

Daily Weather History Graph

Search for Another Location

Airport or City:

Trip Planner

Search our weather history database for the weather conditions in past years. The results will help you decide how hot, cold, wet, or windy it might be!

Date:

Astronomy

Jan. 02, 2014 Rise Set
Actual Time 7:35 AM CST 4:34 PM CST
Civil Twilight 7:02 AM CST 5:07 PM CST
Nautical Twilight 6:26 AM CST 5:43 PM CST
Astronomical Twilight 5:51 AM CST 6:18 PM CST
Moon 8:13 AM CST 6:36 PM CST
Length of Visible Light 10h 04m
Length of Day
8h 59m
Waxing Crescent, 3% of the Moon is Illuminated
Jan 2
Waxing Crescent
Jan 7
First Quarter
Jan 15
Full
Jan 23
Last Quarter
Jan 30
New

Hourly Weather History & Observations

Time (CST) Temp. Windchill Dew Point Humidity Pressure Visibility Wind Dir Wind Speed Gust Speed Precip Events Conditions
12:48 AM 5.0 °F -5.6 °F -4.0 °F 66% 30.31 in 10.0 mi NNW 5.8 mph - N/A   Overcast
12:58 AM 5.9 °F -1.1 °F -3.5 °F 65% 30.38 in 10.0 mi NW 3.5 mph - -   Overcast
1:13 AM 5.0 °F -5.6 °F -4.0 °F 66% 30.30 in 10.0 mi NNW 5.8 mph - N/A   Overcast
1:35 AM 5.0 °F -6.9 °F -4.0 °F 66% 30.30 in 10.0 mi NNW 6.9 mph - N/A Snow Light Snow
1:42 AM 5.0 °F -5.6 °F -4.0 °F 66% 30.30 in 10.0 mi NNW 5.8 mph - N/A   Overcast
1:58 AM 5.5 °F -6.3 °F -3.6 °F 66% 30.38 in 10.0 mi NNW 6.9 mph - -   Overcast
2:18 AM 5.0 °F -6.9 °F -4.0 °F 66% 30.31 in 10.0 mi NNW 6.9 mph - N/A   Overcast
2:58 AM 5.5 °F -5.0 °F -3.5 °F 66% 30.38 in 10.0 mi NNW 5.8 mph - -   Overcast
3:05 AM 5.0 °F -5.6 °F -4.0 °F 66% 30.30 in 10.0 mi NNW 5.8 mph - N/A Snow Light Snow
3:58 AM 5.2 °F -6.7 °F -3.3 °F 68% 30.37 in 10.0 mi NNW 6.9 mph - - Snow Light Snow
4:58 AM 4.8 °F -4.3 °F -2.6 °F 72% 30.38 in 10.0 mi NNW 4.6 mph - - Snow Light Snow
5:38 AM 5.0 °F -6.9 °F -2.2 °F 72% 30.31 in 9.0 mi NNW 6.9 mph - N/A Snow Light Snow
5:58 AM 4.3 °F -7.8 °F -1.8 °F 76% 30.39 in 8.0 mi North 6.9 mph - - Snow Light Snow
6:28 AM 3.2 °F -9.1 °F -2.2 °F 78% 30.31 in 7.0 mi North 6.9 mph - N/A Snow Light Snow
6:43 AM 3.2 °F -9.1 °F -2.2 °F 78% 30.32 in 7.0 mi North 6.9 mph - N/A Snow Light Snow
6:52 AM 3.2 °F -9.1 °F -0.4 °F 85% 30.32 in 7.0 mi North 6.9 mph - N/A Snow Light Snow
6:57 AM 3.2 °F -9.1 °F -0.4 °F 85% 30.32 in 6.0 mi NNW 6.9 mph - N/A Snow Light Snow
6:58 AM 3.2 °F -9.1 °F -0.4 °F 85% 30.40 in 6.0 mi North 6.9 mph - - Snow Light Snow
7:03 AM 3.2 °F -9.1 °F -0.4 °F 85% 30.32 in 6.0 mi North 6.9 mph - N/A Snow Light Snow
7:08 AM 3.2 °F -9.1 °F -2.2 °F 78% 30.32 in 8.0 mi North 6.9 mph - N/A Snow Light Snow
7:13 AM 3.2 °F -9.1 °F -2.2 °F 78% 30.32 in 8.0 mi NNW 6.9 mph - N/A Snow Light Snow
7:28 AM 3.2 °F -10.3 °F -2.2 °F 78% 30.32 in 5.0 mi North 8.1 mph - N/A Snow Light Snow
7:58 AM 3.2 °F -7.8 °F -2.2 °F 78% 30.41 in 5.0 mi NNW 5.8 mph - N/A Snow Light Snow
8:19 AM 3.2 °F -10.3 °F -2.2 °F 78% 30.34 in 10.0 mi North 8.1 mph - N/A   Overcast
9:09 AM 3.2 °F -11.3 °F -2.2 °F 78% 30.36 in 10.0 mi North 9.2 mph - N/A   Overcast
9:58 AM 5.0 °F -5.6 °F -4.0 °F 66% 30.45 in 10.0 mi North 5.8 mph - N/A   Mostly Cloudy
10:58 AM 6.8 °F -4.8 °F -2.2 °F 67% 30.45 in 10.0 mi North 6.9 mph - N/A   Mostly Cloudy
12:04 PM 10.4 °F -2.4 °F -5.8 °F 48% 30.34 in 10.0 mi NNE 9.2 mph - N/A   Clear
12:58 PM 10.4 °F -4.1 °F -5.8 °F 48% 30.41 in 10.0 mi NNW 11.5 mph - N/A   Clear
1:58 PM 12.2 °F -2.5 °F -5.8 °F 45% 30.42 in 10.0 mi NNW 12.7 mph - N/A   Clear
2:58 PM 10.4 °F -3.3 °F -5.8 °F 48% 30.44 in 10.0 mi NNW 10.4 mph - N/A   Clear
3:58 PM 8.6 °F -7.7 °F -7.6 °F 48% 30.45 in 10.0 mi NNW 13.8 mph - N/A   Clear
4:58 PM 3.2 °F - -7.6 °F 61% 30.47 in 10.0 mi North 1.2 mph - N/A   Clear
5:58 PM -4.0 °F - -9.4 °F 78% 30.48 in 10.0 mi Calm Calm - N/A   Clear
6:58 PM -5.1 °F - -9.8 °F 80% 30.48 in 10.0 mi Calm Calm - -   Clear
7:58 PM -6.9 °F -15.7 °F -11.2 °F 81% 30.49 in 10.0 mi West 3.5 mph - -   Clear
8:58 PM -4.7 °F -15.4 °F -10.3 °F 77% 30.49 in 10.0 mi West 4.6 mph - -   Clear
9:58 PM -6.7 °F - -11.2 °F 81% 30.48 in 10.0 mi Calm Calm - -   Clear
10:58 PM -12.8 °F - -16.6 °F 83% 30.49 in 10.0 mi Calm Calm - -   Clear
11:58 PM -13.4 °F - -17.5 °F 82% 30.48 in 10.0 mi Calm Calm - -   Clear